Tracking 18624 objects as of 29-April-2017
HD Live streaming from Space Station
objects crossing your sky now

OPS 9327 (IDSCS 14)

Track OPS 9327 (IDSCS 14) now!
OPS 9327 (IDSCS 14) is classified as:


NORAD ID: 2654
Int'l Code: 1967-003G
Perigee: 33,659.4 km
Apogee: 34,098.9 km
Inclination: 2.1 °
Period: 1,339.4 minutes
Semi major axis: 40250 km
RCS: 0.5011 m2 (medium)
Launch date: January 18, 1967
Source: United States (US)
Launch site: AIR FORCE EASTERN TEST RANGE (AFETR)
Your satellite tracking list
Your tracking list is empty





NASA's NSSDC Master Catalog

Two Line Element Set (TLE):
1  2654U 67003G   17117.14034208 -.00000068 +00000-0 +00000-0 0  9997
2  2654 002.1297 053.9849 0054601 337.0683 233.9195 01.07510697103589
Source of the keplerian elements: AFSPC